[[{"header":{"parameterUnit":"m.s-1","parameterCategory":1,"la1":30.2991,"la2":30.254,"lo1":-89.0895,"lo2":-89.0444,"dy":0.0017,"dx":0.0017,"nx":28,"ny":28,"refTime":"2024-04-11T09:00:00:Z","depth":0,"parameterNumber":2,"parameterNumberName":"U-component_of_WINDS"},"data":[0,0,0,0,0,0,0,0,0,0,0,0,0,0,0,0,0,0,0,0,0,0,0,0,0,0,0,0,0,0,0,0,0,0,0,0,0,0,0,0,0,0,0,0,0,0,0,0,0,0,0,0,0,0,0,0,0,0,4.4648,4.4649,0,4.4694,4.4695,4.4695,4.4615,4.4613,4.461,4.4608,4.4657,4.4661,4.4664,0,0,0,0,0,0,0,0,0,0,0,0,0,4.4492,4.4496,4.4648,4.4649,4.4649,4.4694,4.4695,4.4696,4.4616,4.4613,4.4609,4.4606,4.4656,4.466,4.4665,0,0,0,0,0,0,0,0,0,0,0,0,0,4.4552,4.4497,4.4648,4.4615,4.4612,4.4694,4.4695,4.4696,4.4617,4.4613,4.4609,4.4605,4.4654,4.466,4.4665,4.4782,0,0,4.4683,4.4685,0,0,0,0,0,0,0,0,4.4548,4.4557,4.4619,4.4617,4.4615,4.4645,4.4658,4.4725,4.4618,4.4615,4.4607,4.4603,4.4656,4.4662,4.4679,4.4784,4.4787,4.4683,4.4687,4.4689,4.4691,0,0,0,0,0,0,0,4.4544,4.4555,4.4666,4.462,4.4617,4.4598,4.4602,4.467,4.4658,4.4615,4.4609,4.4616,4.4654,4.4674,4.468,4.4787,4.4683,4.4688,4.4692,4.4694,4.4991,4.4996,0,0,0,0,0,0,4.4544,4.4552,4.4665,4.4668,4.4571,4.4604,4.4609,4.4639,4.4657,4.4656,4.4619,4.4612,4.4666,4.4673,4.4681,4.482,4.4689,4.4695,4.4698,4.4987,4.4992,4.4997,0,0,0,0,0,0,4.4541,4.4555,4.4663,4.4608,4.4621,4.4611,4.4646,4.4642,4.4662,4.466,4.4658,4.4641,4.4663,4.4673,4.4758,4.482,4.4697,4.4703,4.4982,4.4989,4.4995,4.5097,0,0,0,0,0,0,4.4537,4.4554,4.4598,4.461,4.4624,4.4738,4.465,4.4646,4.4672,4.4663,4.468,4.4679,4.4661,4.475,4.4763,4.4826,4.4707,4.4976,4.4985,4.4993,4.5088,4.5106,4.5122,0,0,0,0,0,4.4532,4.4625,4.4601,4.4615,4.4678,4.4742,4.475,4.4726,4.4677,4.4722,4.472,4.4679,4.4811,4.4759,4.4774,4.4839,4.4972,4.4982,4.4992,4.508,4.5103,4.5122,0,0,0,0,0,0,4.4622,4.4626,4.4599,4.4699,4.4721,4.4728,4.4784,4.4751,4.4787,4.4777,4.4746,4.4751,4.4842,4.4849,4.4791,4.4953,4.4883,4.4897,4.4946,4.4967,4.4983,4.498,4.4712,0,0,0,0,0,4.4653,4.4704,4.4705,4.4794,4.4806,4.4793,4.482,4.48,4.4821,4.483,4.4835,4.4858,4.4905,4.4936,4.4979,4.5089,4.5092,4.5141,4.5158,4.5172,4.5184,4.5243,4.5265,4.503,4.503,4.503,0,0,4.4719,4.4727,4.4761,4.4812,4.4826,4.488,4.4801,4.4862,4.4902,4.4839,4.4919,4.4924,4.4948,4.5046,4.5089,4.5054,4.525,4.5185,4.5196,4.52,4.5256,4.5278,4.5298,4.5037,4.5036,4.5034,0,0,4.4866,4.4877,4.4952,4.4968,4.4991,4.4982,4.5,4.5013,4.5014,4.5093,4.5048,4.5095,4.5176,4.5195,4.5215,4.537,4.5333,4.5385,4.5474,4.5532,4.555,4.5567,4.5622,4.5643,4.5397,4.5397,4.5397,0,4.4944,4.5023,4.4995,4.5059,4.5083,4.5028,4.5104,4.5122,4.5158,4.5176,4.5136,4.5236,4.5248,4.535,4.5388,4.5406,4.5426,4.5383,4.555,4.5566,4.5581,4.5633,4.5654,4.5403,4.5403,4.5402,4.5401,0,4.5119,4.5175,4.5233,4.5268,4.5298,4.5368,4.5351,4.5386,4.5363,4.5359,4.5441,4.5454,4.5498,4.5521,4.5499,4.562,4.5598,4.5555,4.5484,4.561,4.5659,4.5679,4.5412,4.541,4.5408,4.5407,0,0,4.5324,4.5343,4.5365,4.5381,4.5402,4.5444,4.5512,4.5555,4.5586,4.5612,4.5669,4.5739,4.5699,4.5722,4.5702,4.5753,4.5876,4.5704,4.5704,4.5736,4.601,4.6043,4.6066,4.5852,4.5855,4.5858,4.6008,0,4.547,4.5586,4.5563,4.5677,4.5728,4.5677,4.5736,4.5756,4.5754,4.5798,4.5795,4.5846,4.5789,4.5803,4.5851,4.5851,4.5931,4.584,4.5904,4.5907,4.59,4.6092,4.6126,4.6267,4.6027,4.603,4.6033,0,4.5656,4.569,4.5808,4.5822,4.5842,4.5896,4.5934,4.5976,4.5998,4.5992,4.6019,4.599,4.6057,4.5986,4.6079,4.6018,4.6043,4.6047,4.6052,4.6057,4.5977,4.6103,4.6311,4.6333,4.6063,4.606,4.6058,0,4.5794,4.5869,4.5949,4.5964,4.5982,4.6021,4.603,4.6048,4.6075,4.6109,4.6127,4.6168,4.6191,4.6224,4.6207,4.6156,4.6304,4.623,4.6302,4.6302,4.6335,4.6333,4.6551,4.6352,4.6351,4.6351,4.635,0,4.596,4.6035,4.6012,4.6061,4.6144,4.6117,4.62,4.6203,4.6219,4.6269,4.6228,4.6276,4.6251,4.6297,4.6284,4.6364,4.6375,4.6373,4.6369,4.6377,4.6377,4.6393,4.6383,4.6356,4.6355,4.6354,4.6353,0,4.6128,4.6116,4.62,4.621,4.6214,4.6275,4.6283,4.633,4.6325,4.6388,4.6402,4.6394,4.6447,4.6433,4.649,4.6481,4.6582,4.6565,4.6575,4.6571,4.6643,4.6636,4.6879,4.6909,4.669,4.6692,4.6694,0,4.6235,4.6291,4.6307,4.6337,4.6349,4.6399,4.6426,4.6403,4.6434,4.6463,4.6507,4.6555,4.6593,4.6679,4.6679,4.6722,4.6707,4.6789,4.6713,4.6719,4.6708,4.6705,4.6711,4.6804,4.6806,4.6808,4.681,0,4.6426,4.6417,4.6458,4.6498,4.6533,4.6563,4.6589,4.6617,4.6595,4.6632,4.6684,4.6714,4.6772,4.6821,4.6861,4.6871,4.6838,4.6834,4.6853,4.6861,4.6864,4.6864,4.6616,4.6828,4.6826,4.6825,4.6824,4.6823,4.6567,4.6615,4.6633,4.6681,4.6698,4.6724,4.6768,4.6769,4.6812,4.6857,4.6841,4.6902,4.6922,4.6973,4.6988,4.7035,4.7004,4.7032,4.7039,4.7046,4.7055,4.6857,4.7043,4.7042,4.7042,4.7041,4.7041,0,4.6756,4.6765,4.6809,4.6848,4.6886,4.685,4.6877,4.6912,4.6965,4.6987,4.7025,4.7086,4.7134,4.7138,4.7182,4.722,4.7205,4.7232,4.7229,4.7232,4.708,4.7059,4.7243,4.7243,4.7243,4.7243,4.7243,4.7243,4.6859,4.6938,4.6931,4.7018,4.7027,4.7086,4.7105,4.7129,4.7146,4.7216,4.7255,4.7257,4.7272,4.7318,4.736,4.736,4.7378,4.7411,4.7405,4.7263,4.7243,4.7224,4.7204,4.7415,4.7416,4.7554,4.7555,4.7556]},{"header":{"parameterUnit":"m.s-1","parameterCategory":1,"la1":30.2991,"la2":30.254,"lo1":-89.0895,"lo2":-89.0444,"dy":0.0017,"dx":0.0017,"nx":28,"ny":28,"refTime":"2024-04-11T09:00:00:Z","depth":0,"parameterNumber":3,"parameterNumberName":"V-component_of_WINDS"},"data":[0,0,0,0,0,0,0,0,0,0,0,0,0,0,0,0,0,0,0,0,0,0,0,0,0,0,0,0,0,0,0,0,0,0,0,0,0,0,0,0,0,0,0,0,0,0,0,0,0,0,0,0,0,0,0,0,0,0,-2.6652,-2.6654,0,-2.6792,-2.6794,-2.6795,-2.6811,-2.6809,-2.6808,-2.6806,-2.6951,-2.6956,-2.6961,0,0,0,0,0,0,0,0,0,0,0,0,0,-2.64,-2.6405,-2.6652,-2.6654,-2.6655,-2.6792,-2.6794,-2.6796,-2.6811,-2.6809,-2.6807,-2.6806,-2.6949,-2.6955,-2.6962,0,0,0,0,0,0,0,0,0,0,0,0,0,-2.6522,-2.6406,-2.6652,-2.6679,-2.6683,-2.6791,-2.6794,-2.6796,-2.6811,-2.6809,-2.6807,-2.6805,-2.6947,-2.6955,-2.6963,-2.7053,0,0,-2.6986,-2.699,0,0,0,0,0,0,0,0,-2.6515,-2.6531,-2.6674,-2.6678,-2.6682,-2.6782,-2.6758,-2.6882,-2.6812,-2.6763,-2.6806,-2.6804,-2.6896,-2.6908,-2.6939,-2.706,-2.7066,-2.6987,-2.6992,-2.6995,-2.6997,0,0,0,0,0,0,0,-2.6507,-2.6525,-2.6707,-2.6676,-2.6681,-2.6686,-2.6701,-2.6782,-2.684,-2.6767,-2.6768,-2.6784,-2.6898,-2.6932,-2.6943,-2.7068,-2.6987,-2.6994,-2.6998,-2.7001,-2.7271,-2.7274,0,0,0,0,0,0,-2.6493,-2.6518,-2.6703,-2.6712,-2.6592,-2.6692,-2.6709,-2.6752,-2.6839,-2.685,-2.6786,-2.6785,-2.692,-2.6934,-2.6948,-2.706,-2.6995,-2.7002,-2.7007,-2.7269,-2.7272,-2.7275,0,0,0,0,0,0,-2.6487,-2.6509,-2.6697,-2.6615,-2.664,-2.6699,-2.6747,-2.6756,-2.6789,-2.6854,-2.6864,-2.6809,-2.6918,-2.6937,-2.7027,-2.7066,-2.7006,-2.7013,-2.7266,-2.727,-2.7273,-2.7285,0,0,0,0,0,0,-2.648,-2.6507,-2.6541,-2.6616,-2.6644,-2.6773,-2.6749,-2.676,-2.6802,-2.6802,-2.6878,-2.6889,-2.6918,-2.7015,-2.7035,-2.7075,-2.7019,-2.7263,-2.7268,-2.7272,-2.7282,-2.7289,-2.7295,0,0,0,0,0,-2.6471,-2.6539,-2.6543,-2.6565,-2.6688,-2.6775,-2.6792,-2.6823,-2.6805,-2.6841,-2.6882,-2.6886,-2.7058,-2.7024,-2.7046,-2.709,-2.726,-2.7266,-2.7272,-2.7279,-2.7288,-2.7295,0,0,0,0,0,0,-2.6468,-2.6549,-2.6554,-2.6649,-2.6705,-2.6778,-2.6823,-2.6832,-2.6895,-2.6892,-2.6929,-2.6946,-2.7035,-2.7071,-2.7032,-2.7183,-2.7158,-2.7168,-2.7155,-2.7164,-2.7171,-2.7161,-2.7025,0,0,0,0,0,-2.6478,-2.6541,-2.661,-2.6686,-2.6714,-2.6764,-2.6803,-2.6823,-2.6883,-2.6907,-2.6955,-2.7014,-2.7081,-2.7125,-2.719,-2.7287,-2.7305,-2.7328,-2.7335,-2.734,-2.7349,-2.7404,-2.7415,-2.7293,-2.7293,-2.7293,0,0,-2.6499,-2.6552,-2.659,-2.6687,-2.6733,-2.6799,-2.6784,-2.6854,-2.6903,-2.6918,-2.7006,-2.7044,-2.7112,-2.7206,-2.725,-2.7239,-2.7386,-2.7347,-2.7351,-2.7357,-2.7411,-2.7422,-2.7433,-2.7297,-2.7296,-2.7296,0,0,-2.6573,-2.6618,-2.6688,-2.6734,-2.6804,-2.6837,-2.6854,-2.6926,-2.6951,-2.704,-2.7053,-2.7113,-2.7228,-2.7276,-2.7316,-2.7409,-2.7415,-2.7429,-2.7465,-2.7518,-2.7528,-2.7536,-2.7571,-2.7582,-2.7437,-2.7438,-2.7438,0,-2.6591,-2.669,-2.6722,-2.6792,-2.6835,-2.6851,-2.6923,-2.6966,-2.7054,-2.7084,-2.7071,-2.7216,-2.7263,-2.7369,-2.7392,-2.7423,-2.7444,-2.742,-2.7524,-2.7533,-2.7541,-2.7574,-2.7587,-2.7439,-2.7439,-2.7439,-2.7438,0,-2.6709,-2.6778,-2.6826,-2.691,-2.6958,-2.7028,-2.7073,-2.7118,-2.7134,-2.7169,-2.726,-2.7317,-2.7395,-2.7421,-2.7438,-2.7531,-2.7522,-2.7516,-2.7491,-2.7554,-2.7585,-2.7598,-2.7441,-2.744,-2.744,-2.7439,0,0,-2.6783,-2.6886,-2.6903,-2.6942,-2.702,-2.7075,-2.7146,-2.7222,-2.7261,-2.7321,-2.7383,-2.7481,-2.7476,-2.7521,-2.7543,-2.759,-2.7661,-2.7578,-2.758,-2.7592,-2.7768,-2.7773,-2.7787,-2.7666,-2.7669,-2.7671,-2.7763,0,-2.6866,-2.6993,-2.7025,-2.7134,-2.7199,-2.7216,-2.7279,-2.7334,-2.7369,-2.743,-2.7468,-2.7537,-2.7525,-2.7552,-2.76,-2.7642,-2.7697,-2.7636,-2.7725,-2.7727,-2.7707,-2.7803,-2.7808,-2.7892,-2.7775,-2.7778,-2.7779,0,-2.6979,-2.7042,-2.7157,-2.7229,-2.7257,-2.7313,-2.7386,-2.7443,-2.7507,-2.7529,-2.758,-2.7598,-2.7675,-2.7647,-2.7753,-2.7711,-2.7749,-2.7776,-2.778,-2.779,-2.7757,-2.7816,-2.792,-2.7932,-2.7799,-2.7797,-2.7796,0,-2.7022,-2.7136,-2.722,-2.7253,-2.7338,-2.7377,-2.7415,-2.7477,-2.7521,-2.7585,-2.7614,-2.7686,-2.7726,-2.7782,-2.782,-2.7796,-2.7924,-2.7898,-2.7945,-2.7944,-2.7971,-2.7969,-2.8083,-2.7995,-2.7995,-2.7995,-2.7994,0,-2.7111,-2.7181,-2.7241,-2.7292,-2.7372,-2.7408,-2.7486,-2.7525,-2.758,-2.764,-2.766,-2.7716,-2.7762,-2.7825,-2.7855,-2.7939,-2.7957,-2.7978,-2.7985,-2.7976,-2.7974,-2.8002,-2.7997,-2.7998,-2.7997,-2.7997,-2.7996,0,-2.7173,-2.7215,-2.7308,-2.7382,-2.7402,-2.7457,-2.7521,-2.7572,-2.7608,-2.7684,-2.7704,-2.776,-2.7836,-2.7879,-2.7973,-2.7994,-2.8088,-2.8092,-2.8066,-2.8069,-2.8114,-2.8109,-2.825,-2.8271,-2.8169,-2.817,-2.817,0,-2.7227,-2.7281,-2.7361,-2.7402,-2.7441,-2.7507,-2.7552,-2.7591,-2.7638,-2.7716,-2.7758,-2.7835,-2.7898,-2.8017,-2.8067,-2.814,-2.8147,-2.8191,-2.8158,-2.8148,-2.8148,-2.8145,-2.8151,-2.8197,-2.8198,-2.8199,-2.8199,0,-2.7319,-2.7337,-2.7401,-2.7473,-2.7527,-2.7585,-2.7644,-2.7677,-2.7726,-2.7777,-2.7854,-2.7903,-2.8,-2.8076,-2.8154,-2.8194,-2.8205,-2.8209,-2.8224,-2.8216,-2.8199,-2.8209,-2.8082,-2.8206,-2.8205,-2.8205,-2.8204,-2.8204,-2.7379,-2.7428,-2.7492,-2.7563,-2.7611,-2.7666,-2.7718,-2.7761,-2.7825,-2.7907,-2.7926,-2.8008,-2.8072,-2.8177,-2.8219,-2.8284,-2.8277,-2.8298,-2.8303,-2.8308,-2.831,-2.8188,-2.8299,-2.8298,-2.8298,-2.8298,-2.8298,0,-2.7472,-2.7514,-2.7579,-2.766,-2.7717,-2.7722,-2.7788,-2.7835,-2.7906,-2.7965,-2.8027,-2.8116,-2.819,-2.8246,-2.8323,-2.8364,-2.8371,-2.8383,-2.838,-2.839,-2.8312,-2.8292,-2.8376,-2.8376,-2.8376,-2.8376,-2.8376,-2.8376,-2.7527,-2.7612,-2.7638,-2.7747,-2.7789,-2.7869,-2.7906,-2.7956,-2.8004,-2.8102,-2.8164,-2.82,-2.8259,-2.8339,-2.8408,-2.8423,-2.845,-2.8461,-2.8477,-2.8403,-2.8395,-2.8387,-2.8368,-2.8467,-2.8467,-2.8549,-2.855,-2.8551]}]]